Regional Weather Roundup
Issued by NWS

Home | Current Version | Previous Version | Text Only | Print | Product List | Glossary On
Versions: 1 2 3 4 5 6 7 8 9 10 11 12 13 14 15 16 17 18 19 20 21 22 23 24 25 26 27 28 29 30 31 32 33 34 35 36 37 38 39 40 41 42 43 44 45 46 47 48 49 50
022
ASUS44 KFWD 132315
RWRTX
NORTH TEXAS HOURLY WEATHER ROUNDUP
NATIONAL WEATHER SERVICE FORT WORTH TX
500 PM CST SAT FEB 13 2016

NOTE: "FAIR" INDICATES FEW OR NO CLOUDS BELOW 12,000 FEET WITH NO
SIGNIFICANT WEATHER AND/OR OBSTRUCTIONS TO VISIBILITY.

TXZ118-119-140000-
DALLAS/FORT WORTH METROPLEX

CITY           SKY/WX    TMP DP  RH WIND       PRES   REMARKS
DFW AIRPORT    MOSUNNY   66  40  38 SE16      30.16F
DALLAS LOVE    MOSUNNY   65  40  39 SE14      30.17F
FTW MEACHAM    SUNNY     68  43  40 SE14      30.14F
DAL-EXECUTIVE  SUNNY     65  41  41 SE13      30.17F
FTW-ALLIANCE   MOSUNNY   66  41  40 SE14      30.14F
FTW-NAS-JRB    MOSUNNY   69  43  38 SE13      30.14F
FTW-SPINKS     SUNNY     70  46  43 SE13G18   30.16F
ARLINGTON      SUNNY     68  42  38 E15       30.16F
GRAND PRAIRIE  SUNNY     66  39  37 E12       30.18F
MESQUITE       SUNNY     64  37  36 SE13      30.20F
LANCASTER      SUNNY     65  38  36 SE14      30.19F
$$

TXZ091>094-102>105-117-120-121-131>134-140000-
NORTH CENTRAL TEXAS

CITY           SKY/WX    TMP DP  RH WIND       PRES   REMARKS
SHRMAN/DENISON SUNNY     61  35  37 SE14      30.20F
GAINESVILLE    SUNNY     60  38  43 SE15      30.18F
BOWIE          SUNNY     63  39  41 SE12G20   30.12F
BRIDGEPORT     SUNNY     66  44  45 SE12G17   30.15F
DECATUR        SUNNY     64  39  39 SE13G20   30.14F
DENTON         SUNNY     64  40  41 SE14      30.16F
MCKINNEY       SUNNY     62  38  40 SE14      30.19F
GREENVILLE     PTSUNNY   63  32  31 SE12      30.22F
ROCKWALL       SUNNY     64  39  40 S6G20     30.19F
TERRELL        SUNNY     64  39  39 SE9       30.21F
WAXAHACHIE     SUNNY     66  46  47 SE9       30.18F
CLEBURNE       SUNNY     68  48  49 SE13      30.16F
GRANBURY       SUNNY     71  48  44 SE14      30.13F
$$

TXZ083>090-098>101-113>116-127>130-139>142-154-155-140000-
WESTERN NORTH TEXAS

CITY           SKY/WX    TMP DP  RH WIND       PRES   REMARKS
WICHITA FALLS  SUNNY     65  40  39 S14G22    30.09F
WF-KICKAPOO    SUNNY     67  40  37 SE14      30.10F
VERNON         MOSUNNY   65  33  29 S13G18    30.07F
ABILENE        SUNNY     75  43  31 S15G24    30.07F
ABILENE-DYESS  CLOUDY    75  45  34 S18       30.05F
BRECKENRIDGE   SUNNY     74  42  31 S13       30.08F
GRAHAM         SUNNY     70  45  39 SE10      30.08F
MINERAL WELLS  SUNNY     68  45  43 SE13      30.10F
STEPHENVILLE   SUNNY     71  46  41 S12G17    30.14F
COMANCHE       SUNNY     73  49  42 S8        30.12F
BROWNWOOD      MOSUNNY   73  45  35 S15       30.11F
COLEMAN        SUNNY     75  43  31 S14G23    30.09F
$$

TXZ143>147-156>162-174-175-140000-
CENTRAL TEXAS

CITY           SKY/WX    TMP DP  RH WIND       PRES   REMARKS
WACO           MOSUNNY   69  54  58 S15       30.16F
WACO-TSTC      SUNNY     70  54  56 S10G21    30.17
WACO-MCGREGOR  MOSUNNY   71  55  56 S18       30.16F
HILLSBORO      SUNNY     69  49  48 SE10      30.16F
CORSICANA      SUNNY     68  44  42 SE10      30.20F
MEXIA          CLOUDY    68  52  56 S12G20    30.18F
HEARNE         PTSUNNY   72  55  53 SE8       30.20F
CAMERON        MOSUNNY   73  53  50 S7        30.18F
TEMPLE         MOSUNNY   71  54  54 S17G24    30.17F
KILLEEN        SUNNY     71  51  48 SE17G25   30.15F
KILLEEN-SKYLRK SUNNY     71  53  52 S15G22    30.16F
FORT HOOD      SUNNY     72  52  50 SE16      30.14F
GATESVILLE     SUNNY     73  50  43 SE13      30.16F
HAMILTON       SUNNY     73  47  38 SE16      30.14F
LAMPASAS       SUNNY     76  48  37 S12G18    30.14F
$$

TXZ095>097-106>112-122>126-135>138-148>153-164>167-140000-
EAST TEXAS

CITY           SKY/WX    TMP DP  RH WIND       PRES   REMARKS
PARIS          SUNNY     55  30  38 SE16      30.25F
SULPHUR SPRNGS PTSUNNY   59  35  40 SE9       30.25F
MOUNT PLEASANT MOSUNNY   58  31  36 SE12      30.28S
GILMER         CLOUDY    58  34  40 E9        30.26F
MINEOLA        MOSUNNY   61  36  39 E8        30.24F
TYLER          MOSUNNY   63  36  36 SE12      30.23F
LONGVIEW       PTSUNNY   59  36  42 SE9       30.26F
MARSHALL       PTSUNNY   56  31  38 SE6       30.31S
ATHENS         MOSUNNY   63  41  45 SE9       30.21F
PALESTINE      MOSUNNY   66  42  41 SE7       30.24F
JACKSONVILLE   PTSUNNY   63  39  41 SE9       30.27F
HENDERSON      CLOUDY    60  37  41 MISG      30.27F
CENTER         CLOUDY    61  36  39 SE8       30.28F
NACOGDOCHES    PTSUNNY   63  37  39 SE10      30.27F
LUFKIN         CLOUDY    64  41  42 E6        30.26F
$$

SUPPLEMENTAL OBSERVATIONS (CENTRAL)

CITY           SKY/WX    TMP DP  RH WIND       PRES   REMARKS
LAKE TEXOMA      N/A     59  34  38 SE10        N/A
CADDO GRASSLND   N/A     57  32  38 SE7G16      N/A
PAT MAYSE LAKE   N/A     55  30  38 E10         N/A
GREENVILLE       N/A     61  36  39 SE9         N/A
CEDAR HILL       N/A     68  41  37 SE6G15      N/A
ATHENS           N/A     64  39  39 SE12        N/A
LAKE LIMESTONE   N/A     70  54  56 SE7         N/A
MCGREGOR         N/A     72  54  53 S16         N/A
TEMPLE           N/A     70  50  49 S15G22      N/A
$$

SUPPLEMENTAL OBSERVATIONS (WEST)

CITY           SKY/WX    TMP DP  RH WIND       PRES   REMARKS
MILLERS CREEK    N/A     72  45  37 S13         N/A
POSSUM KINGDOM   N/A     72  45  37 SE10        N/A
LBJ GRASSLAND    N/A     64  39  39 SE12G20     N/A
GRANBURY         N/A     72  46  40 SE14        N/A
COMANCHE         N/A     72  45  37 S14         N/A
IVIE RESERVOIR   N/A     77  34  20 S13         N/A
COLORADO BEND    N/A     72  45  37 S13G21      N/A
$$

SUPPLEMENTAL OBSERVATIONS (EAST)

CITY           SKY/WX    TMP DP  RH WIND       PRES   REMARKS
CLARKSVILLE      N/A     55  32  41 SE9         N/A
TEXARKANA        N/A     55  27  33 E5G13       N/A
LINDEN           N/A     57  32  38 SE5         N/A
CADDO LAKE       N/A     57  32  38 S5          N/A
GILMER           N/A     59  34  38 SE7         N/A
HENDERSON        N/A     61  36  39 SE9         N/A
LUFKIN           N/A     64  39  39 MISG        N/A
S SABINE NF      N/A     61  39  44 NE1         N/A
$$

SUPPLEMENTAL OBSERVATIONS ARE A COLLECTION OF AUTOMATED INSTRUMENTS
THAT ARE MAINTAINED BY A VARIETY OF FEDERAL AND STATE AGENCIES.
CERTAIN ELEMENTS...SUCH AS HUMIDITY VALUES AND SUSTAINED WIND
SPEEDS...MAY BE APPROXIMATED.





USA.gov is the U.S. government's official web portal to all federal, state and local government web resources and services.